[{"OBJECT_NAME":"COSMOS 2251 DEB","OBJECT_ID":"1993-036AYT","EPOCH":"2026-09-03T10:11:02.973408","MEAN_MOTION":14.35395098,"ECCENTRICITY":0.0086331,"INCLINATION":74.0642,"RA_OF_ASC_NODE":149.045,"ARG_OF_PERICENTER":113.5141,"MEAN_ANOMALY":247.5113,"EPHEMERIS_TYPE":0,"CLASSIFICATION_TYPE":"U","NORAD_CAT_ID":36366,"ELEMENT_SET_NO":999,"REV_AT_EPOCH":90084,"BSTAR":0.00057576,"MEAN_MOTION_DOT":0.00001699,"MEAN_MOTION_DDOT":0},{"OBJECT_NAME":"COSMOS 2251 DEB","OBJECT_ID":"1993-036AYU","EPOCH":"2026-08-16T13:16:04.456704","MEAN_MOTION":13.87126899,"ECCENTRICITY":0.02620386,"INCLINATION":74.0984,"RA_OF_ASC_NODE":174.7618,"ARG_OF_PERICENTER":189.0825,"MEAN_ANOMALY":170.5516,"EPHEMERIS_TYPE":0,"CLASSIFICATION_TYPE":"U","NORAD_CAT_ID":36367,"ELEMENT_SET_NO":999,"REV_AT_EPOCH":60951,"BSTAR":0.00066775214,"MEAN_MOTION_DOT":0.00001005,"MEAN_MOTION_DDOT":0},{"OBJECT_NAME":"COSMOS 2251 DEB","OBJECT_ID":"1993-036AYW","EPOCH":"2026-09-11T17:46:08.422464","MEAN_MOTION":14.78504777,"ECCENTRICITY":0.00154128,"INCLINATION":74.0268,"RA_OF_ASC_NODE":255.7642,"ARG_OF_PERICENTER":271.7596,"MEAN_ANOMALY":88.1814,"EPHEMERIS_TYPE":0,"CLASSIFICATION_TYPE":"U","NORAD_CAT_ID":36369,"ELEMENT_SET_NO":999,"REV_AT_EPOCH":89951,"BSTAR":0.00071288632,"MEAN_MOTION_DOT":0.00005186,"MEAN_MOTION_DDOT":0},{"OBJECT_NAME":"COSMOS 2251 DEB","OBJECT_ID":"1993-036AYY","EPOCH":"2026-09-10T00:20:13.030944","MEAN_MOTION":14.76101374,"ECCENTRICITY":0.00103328,"INCLINATION":74.0131,"RA_OF_ASC_NODE":351.6355,"ARG_OF_PERICENTER":329.9082,"MEAN_ANOMALY":30.1497,"EPHEMERIS_TYPE":0,"CLASSIFICATION_TYPE":"U","NORAD_CAT_ID":36371,"ELEMENT_SET_NO":999,"REV_AT_EPOCH":75441,"BSTAR":0.0010672098,"MEAN_MOTION_DOT":0.00007347,"MEAN_MOTION_DDOT":0},{"OBJECT_NAME":"COSMOS 2251 DEB","OBJECT_ID":"1993-036AZG","EPOCH":"2026-09-10T11:09:09.152928","MEAN_MOTION":14.36445902,"ECCENTRICITY":0.0047272,"INCLINATION":74.0129,"RA_OF_ASC_NODE":167.0157,"ARG_OF_PERICENTER":232.3854,"MEAN_ANOMALY":247.25,"EPHEMERIS_TYPE":0,"CLASSIFICATION_TYPE":"U","NORAD_CAT_ID":36379,"ELEMENT_SET_NO":999,"REV_AT_EPOCH":68729,"BSTAR":0.00013169,"MEAN_MOTION_DOT":0.00000364,"MEAN_MOTION_DDOT":0},{"OBJECT_NAME":"COSMOS 2251 DEB","OBJECT_ID":"1993-036AZN","EPOCH":"2026-09-11T05:09:23.590368","MEAN_MOTION":14.7797507,"ECCENTRICITY":0.01281429,"INCLINATION":73.9706,"RA_OF_ASC_NODE":339.1536,"ARG_OF_PERICENTER":87.186,"MEAN_ANOMALY":274.3973,"EPHEMERIS_TYPE":0,"CLASSIFICATION_TYPE":"U","NORAD_CAT_ID":36385,"ELEMENT_SET_NO":999,"REV_AT_EPOCH":89121,"BSTAR":0.00065971955,"MEAN_MOTION_DOT":0.00005425,"MEAN_MOTION_DDOT":0},{"OBJECT_NAME":"COSMOS 2251 DEB","OBJECT_ID":"1993-036AZT","EPOCH":"2026-09-11T00:53:38.179680","MEAN_MOTION":14.37102507,"ECCENTRICITY":0.00181368,"INCLINATION":74.037,"RA_OF_ASC_NODE":134.8195,"ARG_OF_PERICENTER":163.3939,"MEAN_ANOMALY":263.2075,"EPHEMERIS_TYPE":0,"CLASSIFICATION_TYPE":"U","NORAD_CAT_ID":36420,"ELEMENT_SET_NO":999,"REV_AT_EPOCH":88948,"BSTAR":0.000076497682,"MEAN_MOTION_DOT":0.00000201,"MEAN_MOTION_DDOT":0},{"OBJECT_NAME":"COSMOS 2251 DEB","OBJECT_ID":"1993-036BAD","EPOCH":"2026-08-30T23:31:30.300384","MEAN_MOTION":14.28228995,"ECCENTRICITY":0.0095152,"INCLINATION":74.0067,"RA_OF_ASC_NODE":354.1198,"ARG_OF_PERICENTER":82.7545,"MEAN_ANOMALY":278.4408,"EPHEMERIS_TYPE":0,"CLASSIFICATION_TYPE":"U","NORAD_CAT_ID":36430,"ELEMENT_SET_NO":999,"REV_AT_EPOCH":68286,"BSTAR":0.0001957854,"MEAN_MOTION_DOT":0.00000487,"MEAN_MOTION_DDOT":0},{"OBJECT_NAME":"COSMOS 2251 DEB","OBJECT_ID":"1993-036BAL","EPOCH":"2026-09-11T06:00:42.005088","MEAN_MOTION":14.7511796,"ECCENTRICITY":0.00187632,"INCLINATION":73.9388,"RA_OF_ASC_NODE":219.8055,"ARG_OF_PERICENTER":10.5119,"MEAN_ANOMALY":349.6442,"EPHEMERIS_TYPE":0,"CLASSIFICATION_TYPE":"U","NORAD_CAT_ID":36437,"ELEMENT_SET_NO":999,"REV_AT_EPOCH":70064,"BSTAR":0.00082384178,"MEAN_MOTION_DOT":0.00005544,"MEAN_MOTION_DDOT":0},{"OBJECT_NAME":"COSMOS 2251 DEB","OBJECT_ID":"1993-036BAN","EPOCH":"2026-09-09T10:37:03.725472","MEAN_MOTION":13.48528793,"ECCENTRICITY":0.04263801,"INCLINATION":73.9713,"RA_OF_ASC_NODE":324.4234,"ARG_OF_PERICENTER":244.5113,"MEAN_ANOMALY":111.1319,"EPHEMERIS_TYPE":0,"CLASSIFICATION_TYPE":"U","NORAD_CAT_ID":36439,"ELEMENT_SET_NO":999,"REV_AT_EPOCH":62261,"BSTAR":0.0015257595,"MEAN_MOTION_DOT":0.00001637,"MEAN_MOTION_DDOT":0},{"OBJECT_NAME":"COSMOS 2251 DEB","OBJECT_ID":"1993-036BAQ","EPOCH":"2026-09-11T01:00:03.127968","MEAN_MOTION":15.10880745,"ECCENTRICITY":0.01027996,"INCLINATION":73.8344,"RA_OF_ASC_NODE":141.3205,"ARG_OF_PERICENTER":184.1568,"MEAN_ANOMALY":175.8783,"EPHEMERIS_TYPE":0,"CLASSIFICATION_TYPE":"U","NORAD_CAT_ID":36441,"ELEMENT_SET_NO":999,"REV_AT_EPOCH":91073,"BSTAR":0.0002629808,"MEAN_MOTION_DOT":0.0000492,"MEAN_MOTION_DDOT":0},{"OBJECT_NAME":"COSMOS 2251 DEB","OBJECT_ID":"1993-036BBA","EPOCH":"2026-09-12T05:05:21.048288","MEAN_MOTION":14.19708916,"ECCENTRICITY":0.0183517,"INCLINATION":73.9522,"RA_OF_ASC_NODE":203.8999,"ARG_OF_PERICENTER":327.6367,"MEAN_ANOMALY":31.3621,"EPHEMERIS_TYPE":0,"CLASSIFICATION_TYPE":"U","NORAD_CAT_ID":36451,"ELEMENT_SET_NO":999,"REV_AT_EPOCH":88105,"BSTAR":0.00056188,"MEAN_MOTION_DOT":0.00001379,"MEAN_MOTION_DDOT":0},{"OBJECT_NAME":"COSMOS 2251 DEB","OBJECT_ID":"1993-036BBC","EPOCH":"2026-09-08T18:08:21.858720","MEAN_MOTION":14.5442933,"ECCENTRICITY":0.00680215,"INCLINATION":73.9261,"RA_OF_ASC_NODE":358.8177,"ARG_OF_PERICENTER":203.7063,"MEAN_ANOMALY":308.3144,"EPHEMERIS_TYPE":0,"CLASSIFICATION_TYPE":"U","NORAD_CAT_ID":36453,"ELEMENT_SET_NO":999,"REV_AT_EPOCH":88391,"BSTAR":0.00061725824,"MEAN_MOTION_DOT":0.00002678,"MEAN_MOTION_DDOT":0},{"OBJECT_NAME":"COSMOS 2251 DEB","OBJECT_ID":"1993-036BCN","EPOCH":"2026-09-10T00:38:32.169408","MEAN_MOTION":14.31507612,"ECCENTRICITY":0.00846208,"INCLINATION":74.017,"RA_OF_ASC_NODE":10.4406,"ARG_OF_PERICENTER":354.9666,"MEAN_ANOMALY":5.0623,"EPHEMERIS_TYPE":0,"CLASSIFICATION_TYPE":"U","NORAD_CAT_ID":36528,"ELEMENT_SET_NO":999,"REV_AT_EPOCH":68308,"BSTAR":0.00026918717,"MEAN_MOTION_DOT":0.00000718,"MEAN_MOTION_DDOT":0},{"OBJECT_NAME":"COSMOS 2251 DEB","OBJECT_ID":"1993-036BCP","EPOCH":"2026-09-08T03:08:04.053408","MEAN_MOTION":14.95730963,"ECCENTRICITY":0.00500742,"INCLINATION":74.0035,"RA_OF_ASC_NODE":174.2216,"ARG_OF_PERICENTER":185.4866,"MEAN_ANOMALY":237.6656,"EPHEMERIS_TYPE":0,"CLASSIFICATION_TYPE":"U","NORAD_CAT_ID":36529,"ELEMENT_SET_NO":999,"REV_AT_EPOCH":65148,"BSTAR":0.0035409442,"MEAN_MOTION_DOT":0.00040652,"MEAN_MOTION_DDOT":0},{"OBJECT_NAME":"COSMOS 2251 DEB","OBJECT_ID":"1993-036BCR","EPOCH":"2026-08-25T01:48:07.166016","MEAN_MOTION":14.34796583,"ECCENTRICITY":0.01539222,"INCLINATION":74.0883,"RA_OF_ASC_NODE":266.5216,"ARG_OF_PERICENTER":222.8511,"MEAN_ANOMALY":136.0565,"EPHEMERIS_TYPE":0,"CLASSIFICATION_TYPE":"U","NORAD_CAT_ID":36531,"ELEMENT_SET_NO":999,"REV_AT_EPOCH":63153,"BSTAR":0.0015358997,"MEAN_MOTION_DOT":0.00004955,"MEAN_MOTION_DDOT":0},{"OBJECT_NAME":"COSMOS 2251 DEB","OBJECT_ID":"1993-036BCT","EPOCH":"2026-09-11T14:29:01.281984","MEAN_MOTION":14.5052065,"ECCENTRICITY":0.00471714,"INCLINATION":74.0122,"RA_OF_ASC_NODE":321.4545,"ARG_OF_PERICENTER":42.1492,"MEAN_ANOMALY":318.3279,"EPHEMERIS_TYPE":0,"CLASSIFICATION_TYPE":"U","NORAD_CAT_ID":36533,"ELEMENT_SET_NO":999,"REV_AT_EPOCH":88440,"BSTAR":0.00015837573,"MEAN_MOTION_DOT":0.000006,"MEAN_MOTION_DDOT":0},{"OBJECT_NAME":"COSMOS 2251 DEB","OBJECT_ID":"1993-036BCZ","EPOCH":"2026-09-12T01:01:59.671200","MEAN_MOTION":14.607432,"ECCENTRICITY":0.0028667,"INCLINATION":74.0193,"RA_OF_ASC_NODE":253.1014,"ARG_OF_PERICENTER":322.045,"MEAN_ANOMALY":37.8694,"EPHEMERIS_TYPE":0,"CLASSIFICATION_TYPE":"U","NORAD_CAT_ID":36539,"ELEMENT_SET_NO":999,"REV_AT_EPOCH":87936,"BSTAR":0.00034491,"MEAN_MOTION_DOT":0.00001661,"MEAN_MOTION_DDOT":0},{"OBJECT_NAME":"COSMOS 2251 DEB","OBJECT_ID":"1993-036BDA","EPOCH":"2026-09-11T14:45:20.581056","MEAN_MOTION":14.60895756,"ECCENTRICITY":0.00147719,"INCLINATION":74.0295,"RA_OF_ASC_NODE":19.6441,"ARG_OF_PERICENTER":21.2371,"MEAN_ANOMALY":338.9405,"EPHEMERIS_TYPE":0,"CLASSIFICATION_TYPE":"U","NORAD_CAT_ID":36540,"ELEMENT_SET_NO":999,"REV_AT_EPOCH":89992,"BSTAR":0.00051845173,"MEAN_MOTION_DOT":0.00002512,"MEAN_MOTION_DDOT":0},{"OBJECT_NAME":"COSMOS 2251 DEB","OBJECT_ID":"1993-036BDL","EPOCH":"2026-09-12T03:12:25.098912","MEAN_MOTION":14.27949555,"ECCENTRICITY":0.0077294,"INCLINATION":74.0436,"RA_OF_ASC_NODE":57.8323,"ARG_OF_PERICENTER":42.168,"MEAN_ANOMALY":318.5379,"EPHEMERIS_TYPE":0,"CLASSIFICATION_TYPE":"U","NORAD_CAT_ID":36550,"ELEMENT_SET_NO":999,"REV_AT_EPOCH":88497,"BSTAR":0.0002947,"MEAN_MOTION_DOT":0.00000729,"MEAN_MOTION_DDOT":0},{"OBJECT_NAME":"COSMOS 2251 DEB","OBJECT_ID":"1993-036BDM","EPOCH":"2026-09-12T03:53:43.933920","MEAN_MOTION":15.14661466,"ECCENTRICITY":0.0032106,"INCLINATION":73.8991,"RA_OF_ASC_NODE":165.9064,"ARG_OF_PERICENTER":57.0309,"MEAN_ANOMALY":303.3963,"EPHEMERIS_TYPE":0,"CLASSIFICATION_TYPE":"U","NORAD_CAT_ID":36551,"ELEMENT_SET_NO":999,"REV_AT_EPOCH":71056,"BSTAR":0.0010347,"MEAN_MOTION_DOT":0.00019395,"MEAN_MOTION_DDOT":0},{"OBJECT_NAME":"COSMOS 2251 DEB","OBJECT_ID":"1993-036BDT","EPOCH":"2026-09-07T11:02:22.825824","MEAN_MOTION":14.87795388,"ECCENTRICITY":0.00198373,"INCLINATION":73.9797,"RA_OF_ASC_NODE":311.9623,"ARG_OF_PERICENTER":21.6419,"MEAN_ANOMALY":338.5594,"EPHEMERIS_TYPE":0,"CLASSIFICATION_TYPE":"U","NORAD_CAT_ID":36557,"ELEMENT_SET_NO":999,"REV_AT_EPOCH":37882,"BSTAR":0.0010526988,"MEAN_MOTION_DOT":0.00009626,"MEAN_MOTION_DDOT":0},{"OBJECT_NAME":"COSMOS 2251 DEB","OBJECT_ID":"1993-036BDU","EPOCH":"2026-09-11T16:58:30.601632","MEAN_MOTION":14.56950995,"ECCENTRICITY":0.00128839,"INCLINATION":74.0437,"RA_OF_ASC_NODE":356.95,"ARG_OF_PERICENTER":10.7071,"MEAN_ANOMALY":349.4365,"EPHEMERIS_TYPE":0,"CLASSIFICATION_TYPE":"U","NORAD_CAT_ID":36558,"ELEMENT_SET_NO":999,"REV_AT_EPOCH":89242,"BSTAR":0.00036429656,"MEAN_MOTION_DOT":0.00001609,"MEAN_MOTION_DDOT":0}]